Time,TemperatureF,DewpointF,PressureIn,WindDirection,WindDirectionDegrees,WindSpeedMPH,WindSpeedGustMPH,Humidity,HourlyPrecipIn,Conditions,Clouds,dailyrainin,SoftwareType,DateUTC
2013-09-16 00:00:00,57.0,46.2,30.30,NNW,338,0.0,3.0,67,-99.99,,,0.04,meteohub,2013-09-16 04:00:00,
2013-09-16 00:01:00,57.0,46.2,30.30,NNW,338,0.0,3.0,67,-99.99,,,0.04,meteohub,2013-09-16 04:01:00,
2013-09-16 00:02:00,57.0,46.2,30.30,WNW,292,3.0,3.0,67,-99.99,,,0.04,meteohub,2013-09-16 04:02:00,
2013-09-16 00:07:00,56.8,46.4,30.30,WNW,292,0.0,3.0,68,-99.99,,,0.04,meteohub,2013-09-16 04:07:00,
2013-09-16 00:13:00,56.7,46.2,30.30,West,270,0.0,3.0,68,-99.99,,,0.04,meteohub,2013-09-16 04:13:00,
2013-09-16 00:18:00,56.7,46.2,30.30,South,180,0.0,3.0,68,-99.99,,,0.04,meteohub,2013-09-16 04:18:00,
2013-09-16 00:23:00,56.7,46.6,30.30,SSE,158,3.0,3.0,69,-99.99,,,0.04,meteohub,2013-09-16 04:23:00,
2013-09-16 00:28:00,56.8,46.8,30.30,SSE,158,3.0,4.0,69,-99.99,,,0.04,meteohub,2013-09-16 04:28:00,
2013-09-16 00:33:00,57.0,47.3,30.30,SSE,158,3.0,4.0,70,-99.99,,,0.04,meteohub,2013-09-16 04:33:00,
2013-09-16 00:38:00,56.8,46.8,30.30,WNW,292,2.0,4.0,69,-99.99,,,0.04,meteohub,2013-09-16 04:38:00,
2013-09-16 00:43:00,56.7,46.6,30.30,WNW,292,0.0,4.0,69,-99.99,,,0.04,meteohub,2013-09-16 04:43:00,
2013-09-16 00:48:00,56.3,46.2,30.31,WNW,292,0.0,3.0,69,-99.99,,,0.04,meteohub,2013-09-16 04:48:00,
2013-09-16 00:53:00,56.3,46.2,30.31,WNW,292,1.0,3.0,69,-99.99,,,0.04,meteohub,2013-09-16 04:53:00,
2013-09-16 00:58:00,56.3,46.2,30.31,NE,45,2.0,3.0,69,-99.99,,,0.04,meteohub,2013-09-16 04:58:00,
2013-09-16 01:03:00,56.3,46.2,30.31,NW,315,2.0,3.0,69,-99.99,,,0.04,meteohub,2013-09-16 05:03:00,
2013-09-16 01:08:00,56.5,46.4,30.31,ENE,68,1.0,3.0,69,-99.99,,,0.04,meteohub,2013-09-16 05:08:00,
2013-09-16 01:13:00,56.5,46.4,30.31,East,90,2.0,3.0,69,-99.99,,,0.04,meteohub,2013-09-16 05:13:00,
2013-09-16 01:18:00,56.3,45.9,30.27,SE,135,1.0,4.0,68,-99.99,,,0.04,meteohub,2013-09-16 05:18:00,
2013-09-16 01:23:00,56.3,45.9,30.27,SSW,202,0.0,4.0,68,-99.99,,,0.04,meteohub,2013-09-16 05:23:00,
2013-09-16 01:28:00,56.1,45.7,30.27,ESE,112,1.0,4.0,68,-99.99,,,0.04,meteohub,2013-09-16 05:28:00,
2013-09-16 01:33:00,56.1,45.7,30.27,NW,315,0.0,4.0,68,-99.99,,,0.04,meteohub,2013-09-16 05:33:00,
2013-09-16 01:38:00,55.9,45.1,30.28,SSE,158,1.0,5.0,67,-99.99,,,0.04,meteohub,2013-09-16 05:38:00,
2013-09-16 01:43:00,55.8,45.0,30.28,NNW,338,2.0,5.0,67,-99.99,,,0.04,meteohub,2013-09-16 05:43:00,
2013-09-16 01:48:00,55.8,45.3,30.31,NNE,22,2.0,5.0,68,-99.99,,,0.04,meteohub,2013-09-16 05:48:00,
2013-09-16 01:53:00,56.5,46.0,30.31,North,0,1.0,3.0,68,-99.99,,,0.04,meteohub,2013-09-16 05:53:00,
2013-09-16 01:58:00,56.8,46.4,30.30,NW,315,4.0,4.0,68,-99.99,,,0.04,meteohub,2013-09-16 05:58:00,
2013-09-16 02:03:00,57.2,45.5,30.30,NNW,338,2.0,4.0,65,-99.99,,,0.04,meteohub,2013-09-16 06:03:00,
2013-09-16 02:08:00,57.7,45.3,30.30,North,0,4.0,5.0,63,-99.99,,,0.04,meteohub,2013-09-16 06:08:00,
2013-09-16 02:13:00,57.9,43.7,30.30,NNE,22,3.0,5.0,59,-99.99,,,0.04,meteohub,2013-09-16 06:13:00,
2013-09-16 02:18:00,58.1,43.0,30.29,NNW,338,5.0,6.0,57,-99.99,,,0.04,meteohub,2013-09-16 06:18:00,
2013-09-16 02:23:00,58.1,42.4,30.29,North,0,2.0,6.0,56,-99.99,,,0.04,meteohub,2013-09-16 06:23:00,
2013-09-16 02:29:00,57.9,42.3,30.30,NNW,338,2.0,6.0,56,-99.99,,,0.04,meteohub,2013-09-16 06:29:00,
2013-09-16 02:34:00,57.7,41.7,30.30,NNE,22,2.0,6.0,55,-99.99,,,0.04,meteohub,2013-09-16 06:34:00,
2013-09-16 02:39:00,57.9,41.9,30.30,NW,315,2.0,5.0,55,-99.99,,,0.04,meteohub,2013-09-16 06:39:00,
2013-09-16 02:44:00,57.7,41.7,30.30,NNW,338,0.0,4.0,55,-99.99,,,0.04,meteohub,2013-09-16 06:44:00,
2013-09-16 02:49:00,57.6,42.1,30.26,NNW,338,2.0,4.0,56,-99.99,,,0.04,meteohub,2013-09-16 06:49:00,
2013-09-16 02:54:00,57.2,41.7,30.27,NNW,338,1.0,3.0,56,-99.99,,,0.04,meteohub,2013-09-16 06:54:00,
2013-09-16 02:59:00,56.8,41.7,30.27,NW,315,1.0,3.0,57,-99.99,,,0.04,meteohub,2013-09-16 06:59:00,
2013-09-16 03:04:00,56.5,41.9,30.27,WNW,292,2.0,3.0,58,-99.99,,,0.04,meteohub,2013-09-16 07:04:00,
2013-09-16 03:09:00,56.3,42.3,30.27,WNW,292,2.0,3.0,59,-99.99,,,0.04,meteohub,2013-09-16 07:09:00,
2013-09-16 03:14:00,56.1,42.8,30.27,NW,315,2.0,3.0,61,-99.99,,,0.04,meteohub,2013-09-16 07:14:00,
2013-09-16 03:19:00,55.9,42.6,30.28,WNW,292,2.0,3.0,61,-99.99,,,0.04,meteohub,2013-09-16 07:19:00,
2013-09-16 03:24:00,55.8,43.0,30.28,NW,315,1.0,3.0,62,-99.99,,,0.04,meteohub,2013-09-16 07:24:00,
2013-09-16 03:29:00,55.8,43.0,30.28,NW,315,0.0,4.0,62,-99.99,,,0.04,meteohub,2013-09-16 07:29:00,
2013-09-16 03:34:00,55.6,43.2,30.28,NW,315,0.0,4.0,63,-99.99,,,0.04,meteohub,2013-09-16 07:34:00,
2013-09-16 03:39:00,55.4,43.5,30.28,West,270,0.0,4.0,64,-99.99,,,0.04,meteohub,2013-09-16 07:39:00,
2013-09-16 03:44:00,55.4,43.5,30.28,WNW,292,1.0,3.0,64,-99.99,,,0.04,meteohub,2013-09-16 07:44:00,
2013-09-16 03:49:00,55.2,43.7,30.28,WSW,248,0.0,3.0,65,-99.99,,,0.04,meteohub,2013-09-16 07:49:00,
2013-09-16 03:54:00,55.2,43.7,30.28,NW,315,2.0,2.0,65,-99.99,,,0.04,meteohub,2013-09-16 07:54:00,
2013-09-16 03:59:00,55.2,43.7,30.28,NNE,22,3.0,3.0,65,-99.99,,,0.04,meteohub,2013-09-16 07:59:00,
2013-09-16 04:04:00,55.4,43.9,30.28,WNW,292,3.0,3.0,65,-99.99,,,0.04,meteohub,2013-09-16 08:04:00,
2013-09-16 04:09:00,55.4,43.5,30.28,NNE,22,2.0,3.0,64,-99.99,,,0.04,meteohub,2013-09-16 08:09:00,
2013-09-16 04:14:00,55.6,43.7,30.28,WNW,292,0.0,4.0,64,-99.99,,,0.04,meteohub,2013-09-16 08:14:00,
2013-09-16 04:19:00,55.8,43.7,30.28,North,0,2.0,4.0,64,-99.99,,,0.04,meteohub,2013-09-16 08:19:00,
2013-09-16 04:24:00,55.6,43.2,30.28,NW,315,3.0,4.0,63,-99.99,,,0.04,meteohub,2013-09-16 08:24:00,
2013-09-16 04:29:00,56.3,43.9,30.27,NW,315,2.0,4.0,63,-99.99,,,0.04,meteohub,2013-09-16 08:29:00,
2013-09-16 04:34:00,56.3,43.5,30.27,NNW,338,2.0,7.0,62,-99.99,,,0.04,meteohub,2013-09-16 08:34:00,
2013-09-16 04:39:00,56.1,43.3,30.27,NW,315,2.0,7.0,62,-99.99,,,0.04,meteohub,2013-09-16 08:39:00,
2013-09-16 04:44:00,55.9,42.6,30.28,NW,315,1.0,7.0,61,-99.99,,,0.04,meteohub,2013-09-16 08:44:00,
2013-09-16 04:49:00,55.9,42.6,30.28,NW,315,2.0,5.0,61,-99.99,,,0.04,meteohub,2013-09-16 08:49:00,
2013-09-16 04:54:00,55.9,42.6,30.28,North,0,3.0,3.0,61,-99.99,,,0.04,meteohub,2013-09-16 08:54:00,
2013-09-16 04:59:00,55.8,43.0,30.28,WSW,248,0.0,3.0,62,-99.99,,,0.04,meteohub,2013-09-16 08:59:00,
2013-09-16 05:04:00,56.1,43.3,30.27,WSW,248,2.0,3.0,62,-99.99,,,0.04,meteohub,2013-09-16 09:04:00,
2013-09-16 05:09:00,56.3,43.5,30.27,NW,315,3.0,3.0,62,-99.99,,,0.04,meteohub,2013-09-16 09:09:00,
2013-09-16 05:15:00,56.3,43.0,30.27,North,0,1.0,3.0,61,-99.99,,,0.04,meteohub,2013-09-16 09:15:00,
2013-09-16 05:20:00,56.1,42.8,30.27,NW,315,2.0,3.0,61,-99.99,,,0.04,meteohub,2013-09-16 09:20:00,
2013-09-16 05:25:00,55.9,42.6,30.28,NE,45,2.0,3.0,61,-99.99,,,0.04,meteohub,2013-09-16 09:25:00,
2013-09-16 05:30:00,56.1,42.8,30.27,SW,225,0.0,3.0,61,-99.99,,,0.04,meteohub,2013-09-16 09:30:00,
2013-09-16 05:35:00,56.3,43.5,30.27,WNW,292,1.0,3.0,62,-99.99,,,0.04,meteohub,2013-09-16 09:35:00,
2013-09-16 05:40:00,56.5,43.7,30.27,NNW,338,1.0,3.0,62,-99.99,,,0.04,meteohub,2013-09-16 09:40:00,
2013-09-16 05:45:00,56.7,43.9,30.27,NE,45,2.0,3.0,62,-99.99,,,0.04,meteohub,2013-09-16 09:45:00,
2013-09-16 05:50:00,56.7,43.9,30.27,West,270,2.0,4.0,62,-99.99,,,0.04,meteohub,2013-09-16 09:50:00,
2013-09-16 05:55:00,56.8,44.1,30.27,NW,315,4.0,4.0,62,-99.99,,,0.04,meteohub,2013-09-16 09:55:00,
2013-09-16 06:00:00,57.2,44.2,30.27,WSW,248,0.0,4.0,62,-99.99,,,0.04,meteohub,2013-09-16 10:00:00,
2013-09-16 06:05:00,57.4,44.4,30.27,North,0,3.0,4.0,62,-99.99,,,0.04,meteohub,2013-09-16 10:05:00,
2013-09-16 06:10:00,57.7,44.8,30.26,WNW,292,4.0,4.0,62,-99.99,,,0.04,meteohub,2013-09-16 10:10:00,
2013-09-16 06:15:00,57.9,44.6,30.26,WNW,292,2.0,3.0,61,-99.99,,,0.04,meteohub,2013-09-16 10:15:00,
2013-09-16 06:20:00,58.3,45.0,30.26,SE,135,2.0,4.0,61,-99.99,,,0.04,meteohub,2013-09-16 10:20:00,
2013-09-16 06:25:00,58.5,44.2,30.26,ENE,68,3.0,4.0,59,-99.99,,,0.04,meteohub,2013-09-16 10:25:00,
2013-09-16 06:30:00,58.5,44.2,30.26,NW,315,3.0,4.0,59,-99.99,,,0.04,meteohub,2013-09-16 10:30:00,
2013-09-16 06:35:00,58.3,43.5,30.26,North,-999,-999.0,4.0,58,-99.99,,,0.04,meteohub,2013-09-16 10:35:00,
2013-09-16 06:40:00,58.1,43.3,30.26,North,-999,-999.0,4.0,58,-99.99,,,0.04,meteohub,2013-09-16 10:40:00,
2013-09-16 06:45:00,58.1,43.9,30.26,North,-999,-999.0,-999.0,59,-99.99,,,0.04,meteohub,2013-09-16 10:45:00,
2013-09-16 06:50:00,57.7,43.5,30.26,North,-999,-999.0,-999.0,59,-99.99,,,0.04,meteohub,2013-09-16 10:50:00,
2013-09-16 06:55:00,57.7,43.9,30.26,North,-999,-999.0,-999.0,60,-99.99,,,0.04,meteohub,2013-09-16 10:55:00,
2013-09-16 07:00:00,57.9,44.6,30.26,North,-999,-999.0,-999.0,61,-99.99,,,0.04,meteohub,2013-09-16 11:00:00,
2013-09-16 07:05:00,57.9,44.6,30.26,North,-999,-999.0,-999.0,61,-99.99,,,0.04,meteohub,2013-09-16 11:05:00,
2013-09-16 07:10:00,57.9,44.6,30.26,North,-999,-999.0,-999.0,61,-99.99,,,0.04,meteohub,2013-09-16 11:10:00,
2013-09-16 07:15:00,57.7,44.4,30.26,NW,315,3.0,3.0,61,-99.99,,,0.04,meteohub,2013-09-16 11:15:00,
2013-09-16 07:20:00,57.9,44.6,30.26,North,-999,-999.0,3.0,61,-99.99,,,0.04,meteohub,2013-09-16 11:20:00,
2013-09-16 07:25:00,57.7,44.4,30.26,North,-999,-999.0,3.0,61,-99.99,,,0.04,meteohub,2013-09-16 11:25:00,
2013-09-16 07:30:00,57.7,44.8,30.26,North,-999,-999.0,-999.0,62,-99.99,,,0.04,meteohub,2013-09-16 11:30:00,
2013-09-16 07:35:00,57.6,44.6,30.26,North,-999,-999.0,-999.0,62,-99.99,,,0.04,meteohub,2013-09-16 11:35:00,
2013-09-16 07:40:00,57.6,44.6,30.26,North,-999,-999.0,-999.0,62,-99.99,,,0.04,meteohub,2013-09-16 11:40:00,
2013-09-16 07:45:00,57.6,45.1,30.26,North,-999,-999.0,-999.0,63,-99.99,,,0.04,meteohub,2013-09-16 11:45:00,
2013-09-16 07:51:00,57.7,45.3,30.26,North,-999,-999.0,-999.0,63,-99.99,,,0.04,meteohub,2013-09-16 11:51:00,
2013-09-16 07:56:00,57.9,45.9,30.26,NNW,338,4.0,-999.0,64,-99.99,,,0.04,meteohub,2013-09-16 11:56:00,
2013-09-16 08:01:00,58.1,46.0,30.26,NW,315,3.0,4.0,64,-99.99,,,0.04,meteohub,2013-09-16 12:01:00,
2013-09-16 08:06:00,58.1,46.0,30.26,NNW,338,2.0,4.0,64,-99.99,,,0.04,meteohub,2013-09-16 12:06:00,
2013-09-16 08:11:00,58.5,46.8,30.26,North,-999,-999.0,3.0,65,-99.99,,,0.04,meteohub,2013-09-16 12:11:00,
2013-09-16 08:16:00,58.8,46.8,30.25,North,-999,-999.0,2.0,64,-99.99,,,0.04,meteohub,2013-09-16 12:16:00,
2013-09-16 08:21:00,59.2,46.9,30.25,North,-999,-999.0,-999.0,64,-99.99,,,0.04,meteohub,2013-09-16 12:21:00,
2013-09-16 08:26:00,59.4,46.8,30.25,NW,315,4.0,4.0,63,-99.99,,,0.04,meteohub,2013-09-16 12:26:00,
2013-09-16 08:31:00,59.7,46.8,30.25,North,-999,-999.0,4.0,62,-99.99,,,0.04,meteohub,2013-09-16 12:31:00,
2013-09-16 08:36:00,60.1,46.6,30.25,NW,315,2.0,4.0,61,-99.99,,,0.04,meteohub,2013-09-16 12:36:00,
2013-09-16 08:41:00,60.3,46.4,30.24,WNW,292,3.0,3.0,60,-99.99,,,0.04,meteohub,2013-09-16 12:41:00,
2013-09-16 08:46:00,60.6,46.2,30.24,North,-999,-999.0,3.0,59,-99.99,,,0.04,meteohub,2013-09-16 12:46:00,
2013-09-16 08:51:00,60.6,46.2,30.24,NW,315,2.0,3.0,59,-99.99,,,0.04,meteohub,2013-09-16 12:51:00,
2013-09-16 08:56:00,60.8,45.9,30.24,North,-999,-999.0,2.0,58,-99.99,,,0.04,meteohub,2013-09-16 12:56:00,
2013-09-16 09:01:00,61.2,45.9,30.24,North,-999,-999.0,2.0,57,-99.99,,,0.04,meteohub,2013-09-16 13:01:00,
2013-09-16 09:06:00,61.3,46.0,30.23,WSW,248,1.0,-999.0,57,-99.99,,,0.04,meteohub,2013-09-16 13:06:00,
2013-09-16 09:11:00,61.3,45.1,30.23,North,-999,-999.0,1.0,55,-99.99,,,0.04,meteohub,2013-09-16 13:11:00,
2013-09-16 09:16:00,61.3,45.1,30.23,WNW,292,1.0,3.0,55,-99.99,,,0.04,meteohub,2013-09-16 13:16:00,
2013-09-16 09:21:00,61.3,45.1,30.23,North,-999,-999.0,3.0,55,-99.99,,,0.04,meteohub,2013-09-16 13:21:00,
2013-09-16 09:26:00,61.7,45.3,30.23,NE,45,4.0,4.0,55,-99.99,,,0.04,meteohub,2013-09-16 13:26:00,
2013-09-16 09:31:00,61.9,44.6,30.23,North,-999,-999.0,4.0,53,-99.99,,,0.04,meteohub,2013-09-16 13:31:00,
2013-09-16 09:36:00,62.2,44.4,30.23,North,-999,-999.0,4.0,52,-99.99,,,0.04,meteohub,2013-09-16 13:36:00,
2013-09-16 09:41:00,62.6,44.8,30.22,North,-999,-999.0,4.0,52,-99.99,,,0.04,meteohub,2013-09-16 13:41:00,
2013-09-16 09:46:00,62.6,43.7,30.22,North,-999,-999.0,-999.0,50,-99.99,,,0.04,meteohub,2013-09-16 13:46:00,
2013-09-16 09:51:00,63.0,43.5,30.22,North,-999,-999.0,-999.0,49,-99.99,,,0.04,meteohub,2013-09-16 13:51:00,
2013-09-16 09:56:00,63.1,43.7,30.22,SSE,158,4.0,-999.0,49,-99.99,,,0.04,meteohub,2013-09-16 13:56:00,
2013-09-16 10:01:00,63.5,43.5,30.22,ENE,68,4.0,4.0,48,-99.99,,,0.04,meteohub,2013-09-16 14:01:00,
2013-09-16 10:06:00,63.7,43.7,30.25,North,-999,-999.0,4.0,48,-99.99,,,0.04,meteohub,2013-09-16 14:06:00,
2013-09-16 10:11:00,64.0,43.3,30.25,North,-999,-999.0,4.0,47,-99.99,,,0.04,meteohub,2013-09-16 14:11:00,
2013-09-16 10:16:00,64.6,43.9,30.24,North,-999,-999.0,4.0,47,-99.99,,,0.04,meteohub,2013-09-16 14:16:00,
2013-09-16 10:21:00,64.2,43.0,30.25,North,-999,-999.0,-999.0,46,-99.99,,,0.04,meteohub,2013-09-16 14:21:00,
2013-09-16 10:26:00,63.9,42.1,30.25,North,-999,-999.0,-999.0,45,-99.99,,,0.04,meteohub,2013-09-16 14:26:00,
2013-09-16 10:31:00,64.2,43.5,30.25,NW,315,3.0,-999.0,47,-99.99,,,0.04,meteohub,2013-09-16 14:31:00,
2013-09-16 10:36:00,64.4,42.6,30.25,North,-999,-999.0,3.0,45,-99.99,,,0.04,meteohub,2013-09-16 14:36:00,
2013-09-16 10:41:00,64.9,43.2,30.24,North,-999,-999.0,3.0,45,-99.99,,,0.04,meteohub,2013-09-16 14:41:00,
2013-09-16 10:46:00,65.8,43.9,30.23,North,-999,-999.0,3.0,45,-99.99,,,0.04,meteohub,2013-09-16 14:46:00,
2013-09-16 10:51:00,65.3,41.7,30.24,North,-999,-999.0,-999.0,42,-99.99,,,0.04,meteohub,2013-09-16 14:51:00,
2013-09-16 10:56:00,64.9,41.9,30.24,North,-999,-999.0,-999.0,43,-99.99,,,0.04,meteohub,2013-09-16 14:56:00,
2013-09-16 11:01:00,64.8,41.2,30.24,North,-999,-999.0,-999.0,42,-99.99,,,0.04,meteohub,2013-09-16 15:01:00,
2013-09-16 11:06:00,64.8,41.7,30.24,North,-999,-999.0,-999.0,43,-99.99,,,0.04,meteohub,2013-09-16 15:06:00,
2013-09-16 11:11:00,64.8,41.7,30.24,North,-999,-999.0,-999.0,43,-99.99,,,0.04,meteohub,2013-09-16 15:11:00,
2013-09-16 11:16:00,64.9,40.6,30.24,North,-999,-999.0,-999.0,41,-99.99,,,0.04,meteohub,2013-09-16 15:16:00,
2013-09-16 11:21:00,65.1,42.1,30.24,North,-999,-999.0,-999.0,43,-99.99,,,0.04,meteohub,2013-09-16 15:21:00,
2013-09-16 11:26:00,65.1,41.5,30.24,West,270,4.0,4.0,42,-99.99,,,0.04,meteohub,2013-09-16 15:26:00,
2013-09-16 11:31:00,65.5,42.4,30.24,SSW,202,0.0,4.0,43,-99.99,,,0.04,meteohub,2013-09-16 15:31:00,
2013-09-16 11:36:00,65.8,43.3,30.23,SSE,158,3.0,4.0,44,-99.99,,,0.04,meteohub,2013-09-16 15:36:00,
2013-09-16 11:41:00,66.0,43.0,30.23,South,180,4.0,4.0,43,-99.99,,,0.04,meteohub,2013-09-16 15:41:00,
2013-09-16 11:46:00,66.0,43.0,30.23,North,-999,-999.0,4.0,43,-99.99,,,0.04,meteohub,2013-09-16 15:46:00,
2013-09-16 11:51:00,66.0,43.5,30.23,North,-999,-999.0,4.0,44,-99.99,,,0.04,meteohub,2013-09-16 15:51:00,
2013-09-16 11:56:00,66.2,44.2,30.23,North,-999,-999.0,-999.0,45,-99.99,,,0.04,meteohub,2013-09-16 15:56:00,
2013-09-16 12:01:00,66.2,44.2,30.23,West,270,2.0,2.0,45,-99.99,,,0.04,meteohub,2013-09-16 16:01:00,
2013-09-16 12:06:00,66.4,44.4,30.23,North,-999,-999.0,2.0,45,-99.99,,,0.04,meteohub,2013-09-16 16:06:00,
2013-09-16 12:11:00,66.4,43.2,30.23,WNW,292,2.0,2.0,43,-99.99,,,0.04,meteohub,2013-09-16 16:11:00,
2013-09-16 12:17:00,66.7,43.5,30.23,North,-999,-999.0,6.0,43,-99.99,,,0.04,meteohub,2013-09-16 16:17:00,
2013-09-16 12:22:00,66.9,43.2,30.22,North,-999,-999.0,6.0,42,-99.99,,,0.04,meteohub,2013-09-16 16:22:00,
2013-09-16 12:27:00,66.9,40.5,30.22,WNW,292,4.0,6.0,38,-99.99,,,0.04,meteohub,2013-09-16 16:27:00,
2013-09-16 12:32:00,66.7,39.7,30.23,North,-999,-999.0,5.0,37,-99.99,,,0.04,meteohub,2013-09-16 16:32:00,
2013-09-16 12:37:00,66.6,39.6,30.23,North,-999,-999.0,5.0,37,-99.99,,,0.04,meteohub,2013-09-16 16:37:00,
2013-09-16 12:42:00,66.6,40.3,30.23,North,0,3.0,4.0,38,-99.99,,,0.04,meteohub,2013-09-16 16:42:00,
2013-09-16 12:47:00,66.7,39.0,30.23,NW,315,3.0,3.0,36,-99.99,,,0.04,meteohub,2013-09-16 16:47:00,
2013-09-16 12:52:00,66.7,39.7,30.23,WNW,292,2.0,3.0,37,-99.99,,,0.04,meteohub,2013-09-16 16:52:00,
2013-09-16 12:57:00,66.7,40.3,30.23,WNW,292,3.0,3.0,38,-99.99,,,0.04,meteohub,2013-09-16 16:57:00,
2013-09-16 13:02:00,66.7,39.7,30.23,WNW,292,1.0,3.0,37,-99.99,,,0.04,meteohub,2013-09-16 17:02:00,
2013-09-16 13:07:00,67.1,39.9,30.22,North,-999,-999.0,3.0,37,-99.99,,,0.04,meteohub,2013-09-16 17:07:00,
2013-09-16 13:12:00,67.8,41.4,30.22,North,-999,-999.0,3.0,38,-99.99,,,0.04,meteohub,2013-09-16 17:12:00,
2013-09-16 13:17:00,68.0,40.8,30.22,North,-999,-999.0,-999.0,37,-99.99,,,0.04,meteohub,2013-09-16 17:17:00,
2013-09-16 13:22:00,68.0,40.1,30.22,WNW,292,4.0,4.0,36,-99.99,,,0.04,meteohub,2013-09-16 17:22:00,
2013-09-16 13:27:00,70.0,41.9,30.20,North,-999,-999.0,4.0,36,-99.99,,,0.04,meteohub,2013-09-16 17:27:00,
2013-09-16 13:32:00,70.7,41.7,30.20,North,-999,-999.0,4.0,35,-99.99,,,0.04,meteohub,2013-09-16 17:32:00,
2013-09-16 13:37:00,70.2,41.2,30.20,North,-999,-999.0,4.0,35,-99.99,,,0.04,meteohub,2013-09-16 17:37:00,
2013-09-16 13:42:00,70.2,40.5,30.20,North,-999,-999.0,-999.0,34,-99.99,,,0.04,meteohub,2013-09-16 17:42:00,
2013-09-16 13:47:00,70.0,39.6,30.20,ENE,68,0.0,-999.0,33,-99.99,,,0.04,meteohub,2013-09-16 17:47:00,
2013-09-16 13:52:00,70.2,39.7,30.20,North,-999,-999.0,1.0,33,-99.99,,,0.04,meteohub,2013-09-16 17:52:00,
2013-09-16 13:57:00,69.6,40.1,30.20,North,-999,-999.0,1.0,34,-99.99,,,0.04,meteohub,2013-09-16 17:57:00,
2013-09-16 14:02:00,70.0,39.6,30.20,North,-999,-999.0,-999.0,33,-99.99,,,0.04,meteohub,2013-09-16 18:02:00,
2013-09-16 14:07:00,72.3,41.7,30.19,North,-999,-999.0,-999.0,33,-99.99,,,0.04,meteohub,2013-09-16 18:07:00,
2013-09-16 14:12:00,74.1,43.2,30.17,North,-999,-999.0,-999.0,33,-99.99,,,0.04,meteohub,2013-09-16 18:12:00,
2013-09-16 14:17:00,74.7,42.8,30.17,North,-999,-999.0,-999.0,32,-99.99,,,0.04,meteohub,2013-09-16 18:17:00,
2013-09-16 14:22:00,75.6,41.9,30.16,North,-999,-999.0,-999.0,30,-99.99,,,0.04,meteohub,2013-09-16 18:22:00,
2013-09-16 14:27:00,75.9,42.3,30.16,WNW,292,3.0,-999.0,30,-99.99,,,0.04,meteohub,2013-09-16 18:27:00,
2013-09-16 14:32:00,76.1,40.6,30.16,North,-999,-999.0,3.0,28,-99.99,,,0.04,meteohub,2013-09-16 18:32:00,
2013-09-16 14:37:00,76.1,37.8,30.12,North,-999,-999.0,3.0,25,-99.99,,,0.04,meteohub,2013-09-16 18:37:00,
2013-09-16 14:42:00,76.3,37.9,30.12,NW,315,3.0,3.0,25,-99.99,,,0.04,meteohub,2013-09-16 18:42:00,
2013-09-16 14:47:00,74.5,35.4,30.14,NW,315,2.0,4.0,24,-99.99,,,0.04,meteohub,2013-09-16 18:47:00,
2013-09-16 14:52:00,72.7,35.8,30.18,WNW,292,1.0,4.0,26,-99.99,,,0.04,meteohub,2013-09-16 18:52:00,
2013-09-16 14:57:00,71.4,36.7,30.19,WNW,292,3.0,4.0,28,-99.99,,,0.04,meteohub,2013-09-16 18:57:00,
2013-09-16 15:02:00,71.1,39.0,30.19,NW,315,2.0,4.0,31,-99.99,,,0.04,meteohub,2013-09-16 19:02:00,
2013-09-16 15:07:00,70.2,37.4,30.17,NW,315,1.0,4.0,30,-99.99,,,0.04,meteohub,2013-09-16 19:07:00,
2013-09-16 15:12:00,69.4,38.3,30.17,WNW,292,2.0,4.0,32,-99.99,,,0.04,meteohub,2013-09-16 19:12:00,
2013-09-16 15:17:00,69.1,38.8,30.17,WNW,292,2.0,5.0,33,-99.99,,,0.04,meteohub,2013-09-16 19:17:00,
2013-09-16 15:22:00,69.1,38.8,30.17,WNW,292,1.0,5.0,33,-99.99,,,0.04,meteohub,2013-09-16 19:22:00,
2013-09-16 15:27:00,69.6,40.1,30.17,NW,315,1.0,3.0,34,-99.99,,,0.04,meteohub,2013-09-16 19:27:00,
2013-09-16 15:32:00,71.6,41.0,30.16,WNW,292,0.0,5.0,33,-99.99,,,0.04,meteohub,2013-09-16 19:32:00,
2013-09-16 15:37:00,72.1,40.6,30.19,West,270,2.0,5.0,32,-99.99,,,0.04,meteohub,2013-09-16 19:37:00,
2013-09-16 15:42:00,70.9,39.6,30.19,WNW,292,3.0,5.0,32,-99.99,,,0.04,meteohub,2013-09-16 19:42:00,
2013-09-16 15:47:00,69.6,38.5,30.20,NNE,22,3.0,4.0,32,-99.99,,,0.04,meteohub,2013-09-16 19:47:00,
2013-09-16 15:52:00,68.7,38.5,30.18,WNW,292,1.0,5.0,33,-99.99,,,0.04,meteohub,2013-09-16 19:52:00,
2013-09-16 15:57:00,68.4,38.1,30.18,WNW,292,3.0,5.0,33,-99.99,,,0.04,meteohub,2013-09-16 19:57:00,
2013-09-16 16:02:00,67.6,37.6,30.19,WNW,292,2.0,5.0,33,-99.99,,,0.04,meteohub,2013-09-16 20:02:00,
2013-09-16 16:07:00,67.1,37.8,30.19,West,270,3.0,4.0,34,-99.99,,,0.04,meteohub,2013-09-16 20:07:00,
2013-09-16 16:12:00,67.1,38.5,30.19,SW,225,2.0,4.0,35,-99.99,,,0.04,meteohub,2013-09-16 20:12:00,
2013-09-16 16:17:00,66.6,38.1,30.19,WNW,292,2.0,4.0,35,-99.99,,,0.04,meteohub,2013-09-16 20:17:00,
2013-09-16 16:22:00,66.2,38.5,30.20,WNW,292,3.0,3.0,36,-99.99,,,0.04,meteohub,2013-09-16 20:22:00,
2013-09-16 16:27:00,65.7,39.4,30.20,NW,315,1.0,4.0,38,-99.99,,,0.04,meteohub,2013-09-16 20:27:00,
2013-09-16 16:32:00,64.9,38.8,30.21,West,270,2.0,4.0,38,-99.99,,,0.04,meteohub,2013-09-16 20:32:00,
2013-09-16 16:37:00,64.6,39.0,30.21,NNW,338,2.0,4.0,39,-99.99,,,0.04,meteohub,2013-09-16 20:37:00,
2013-09-16 16:42:00,64.2,40.1,30.21,WNW,292,2.0,4.0,41,-99.99,,,0.04,meteohub,2013-09-16 20:42:00,
2013-09-16 16:47:00,64.0,39.2,30.21,NW,315,2.0,4.0,40,-99.99,,,0.04,meteohub,2013-09-16 20:47:00,
2013-09-16 16:52:00,63.9,39.7,30.22,WNW,292,2.0,4.0,41,-99.99,,,0.04,meteohub,2013-09-16 20:52:00,
2013-09-16 16:57:00,63.5,40.1,30.22,WNW,292,2.0,4.0,42,-99.99,,,0.04,meteohub,2013-09-16 20:57:00,
2013-09-16 17:02:00,63.5,40.6,30.22,WNW,292,3.0,4.0,43,-99.99,,,0.04,meteohub,2013-09-16 21:02:00,
2013-09-16 17:07:00,63.3,41.0,30.22,WNW,292,2.0,3.0,44,-99.99,,,0.04,meteohub,2013-09-16 21:07:00,
2013-09-16 17:12:00,63.5,41.7,30.22,NNW,338,1.0,3.0,45,-99.99,,,0.04,meteohub,2013-09-16 21:12:00,
2013-09-16 17:17:00,63.7,41.4,30.22,North,0,2.0,3.0,44,-99.99,,,0.04,meteohub,2013-09-16 21:17:00,
2013-09-16 17:22:00,63.9,41.5,30.22,NW,315,3.0,4.0,44,-99.99,,,0.04,meteohub,2013-09-16 21:22:00,
2013-09-16 17:27:00,63.7,40.8,30.22,NNW,338,3.0,4.0,43,-99.99,,,0.04,meteohub,2013-09-16 21:27:00,
2013-09-16 17:32:00,63.5,40.6,30.22,NNW,338,2.0,4.0,43,-99.99,,,0.04,meteohub,2013-09-16 21:32:00,
2013-09-16 17:37:00,63.5,41.2,30.22,NW,315,2.0,4.0,44,-99.99,,,0.04,meteohub,2013-09-16 21:37:00,
2013-09-16 17:42:00,63.5,40.6,30.22,WNW,292,2.0,4.0,43,-99.99,,,0.04,meteohub,2013-09-16 21:42:00,
2013-09-16 17:47:00,63.7,40.8,30.22,NNW,338,3.0,4.0,43,-99.99,,,0.04,meteohub,2013-09-16 21:47:00,
2013-09-16 17:52:00,63.5,40.1,30.22,WNW,292,0.0,6.0,42,-99.99,,,0.04,meteohub,2013-09-16 21:52:00,
2013-09-16 17:57:00,63.3,40.5,30.22,WNW,292,3.0,6.0,43,-99.99,,,0.04,meteohub,2013-09-16 21:57:00,
2013-09-16 18:02:00,63.3,41.0,30.22,WNW,292,2.0,6.0,44,-99.99,,,0.04,meteohub,2013-09-16 22:02:00,
2013-09-16 18:07:00,63.3,41.0,30.22,WSW,248,3.0,4.0,44,-99.99,,,0.04,meteohub,2013-09-16 22:07:00,
2013-09-16 18:12:00,63.3,40.5,30.22,NW,315,3.0,4.0,43,-99.99,,,0.04,meteohub,2013-09-16 22:12:00,
2013-09-16 18:17:00,63.1,40.8,30.22,WNW,292,2.0,4.0,44,-99.99,,,0.04,meteohub,2013-09-16 22:17:00,
2013-09-16 18:22:00,63.0,40.1,30.22,NNW,338,3.0,4.0,43,-99.99,,,0.04,meteohub,2013-09-16 22:22:00,
2013-09-16 18:27:00,62.6,39.7,30.22,West,270,2.0,4.0,43,-99.99,,,0.04,meteohub,2013-09-16 22:27:00,
2013-09-16 18:32:00,62.2,38.8,30.23,NW,315,3.0,4.0,42,-99.99,,,0.04,meteohub,2013-09-16 22:32:00,
2013-09-16 18:37:00,62.2,38.3,30.23,WNW,292,3.0,4.0,41,-99.99,,,0.04,meteohub,2013-09-16 22:37:00,
2013-09-16 18:42:00,62.2,37.6,30.23,WNW,292,4.0,4.0,40,-99.99,,,0.04,meteohub,2013-09-16 22:42:00,
2013-09-16 18:47:00,62.1,37.4,30.23,NNW,338,3.0,4.0,40,-99.99,,,0.04,meteohub,2013-09-16 22:47:00,
2013-09-16 18:52:00,61.9,37.9,30.23,North,0,2.0,4.0,41,-99.99,,,0.04,meteohub,2013-09-16 22:52:00,
2013-09-16 18:57:00,61.9,37.4,30.23,WSW,248,0.0,4.0,40,-99.99,,,0.04,meteohub,2013-09-16 22:57:00,
2013-09-16 19:02:00,61.7,37.2,30.23,North,0,0.0,4.0,40,-99.99,,,0.04,meteohub,2013-09-16 23:02:00,
2013-09-16 19:07:00,61.3,37.4,30.23,WNW,292,0.0,2.0,41,-99.99,,,0.04,meteohub,2013-09-16 23:07:00,
2013-09-16 19:12:00,61.3,37.4,30.23,NW,315,1.0,2.0,41,-99.99,,,0.04,meteohub,2013-09-16 23:12:00,
2013-09-16 19:17:00,61.2,37.9,30.24,WSW,248,0.0,2.0,42,-99.99,,,0.04,meteohub,2013-09-16 23:17:00,
2013-09-16 19:22:00,61.0,39.0,30.27,West,270,0.0,2.0,44,-99.99,,,0.04,meteohub,2013-09-16 23:22:00,
2013-09-16 19:27:00,61.0,39.0,30.27,NW,315,0.0,2.0,44,-99.99,,,0.04,meteohub,2013-09-16 23:27:00,
2013-09-16 19:32:00,61.0,39.6,30.27,WNW,292,1.0,3.0,45,-99.99,,,0.04,meteohub,2013-09-16 23:32:00,
2013-09-16 19:37:00,60.8,39.9,30.24,NW,315,2.0,3.0,46,-99.99,,,0.04,meteohub,2013-09-16 23:37:00,
2013-09-16 19:42:00,60.8,40.5,30.24,North,-999,-999.0,3.0,47,-99.99,,,0.04,meteohub,2013-09-16 23:42:00,
2013-09-16 19:47:00,60.8,40.5,30.24,North,-999,-999.0,2.0,47,-99.99,,,0.04,meteohub,2013-09-16 23:47:00,
2013-09-16 19:52:00,60.6,41.4,30.27,North,-999,-999.0,-999.0,49,-99.99,,,0.04,meteohub,2013-09-16 23:52:00,
2013-09-16 19:57:00,60.6,41.4,30.27,North,-999,-999.0,-999.0,49,-99.99,,,0.04,meteohub,2013-09-16 23:57:00,
2013-09-16 20:02:00,60.6,41.9,30.27,WNW,292,0.0,-999.0,50,-99.99,,,0.04,meteohub,2013-09-17 00:02:00,
2013-09-16 20:07:00,60.6,42.4,30.27,North,-999,-999.0,0.0,51,-99.99,,,0.04,meteohub,2013-09-17 00:07:00,
2013-09-16 20:12:00,60.4,42.8,30.27,North,-999,-999.0,0.0,52,-99.99,,,0.04,meteohub,2013-09-17 00:12:00,
2013-09-16 20:17:00,60.4,42.8,30.27,North,-999,-999.0,0.0,52,-99.99,,,0.04,meteohub,2013-09-17 00:17:00,
2013-09-16 20:22:00,60.4,43.3,30.27,North,-999,-999.0,-999.0,53,-99.99,,,0.04,meteohub,2013-09-17 00:22:00,
2013-09-16 20:27:00,60.4,43.3,30.27,North,-999,-999.0,-999.0,53,-99.99,,,0.04,meteohub,2013-09-17 00:27:00,
2013-09-16 20:32:00,60.4,43.3,30.27,North,-999,-999.0,-999.0,53,-99.99,,,0.04,meteohub,2013-09-17 00:32:00,
2013-09-16 20:37:00,60.4,43.3,30.31,NNW,338,1.0,1.0,53,-99.99,,,0.04,meteohub,2013-09-17 00:37:00,
2013-09-16 20:42:00,60.4,43.3,30.31,North,-999,-999.0,1.0,53,-99.99,,,0.04,meteohub,2013-09-17 00:42:00,
2013-09-16 20:47:00,60.4,43.7,30.31,North,-999,-999.0,1.0,54,-99.99,,,0.04,meteohub,2013-09-17 00:47:00,
2013-09-16 20:52:00,60.3,43.5,30.31,North,-999,-999.0,-999.0,54,-99.99,,,0.04,meteohub,2013-09-17 00:52:00,
2013-09-16 20:57:00,60.3,44.1,30.31,North,-999,-999.0,-999.0,55,-99.99,,,0.04,meteohub,2013-09-17 00:57:00,
2013-09-16 21:02:00,60.3,44.1,30.31,WNW,292,0.0,-999.0,55,-99.99,,,0.04,meteohub,2013-09-17 01:02:00,
2013-09-16 21:07:00,60.1,43.9,30.31,North,-999,-999.0,0.0,55,-99.99,,,0.04,meteohub,2013-09-17 01:07:00,
2013-09-16 21:12:00,60.1,43.9,30.31,NW,315,1.0,1.0,55,-99.99,,,0.04,meteohub,2013-09-17 01:12:00,
2013-09-16 21:17:00,60.1,43.9,30.31,North,-999,-999.0,1.0,55,-99.99,,,0.04,meteohub,2013-09-17 01:17:00,
2013-09-16 21:22:00,59.9,43.7,30.31,North,-999,-999.0,1.0,55,-99.99,,,0.04,meteohub,2013-09-17 01:22:00,
2013-09-16 21:27:00,59.7,44.1,30.31,North,-999,-999.0,-999.0,56,-99.99,,,0.04,meteohub,2013-09-17 01:27:00,
2013-09-16 21:32:00,59.7,44.1,30.31,North,-999,-999.0,-999.0,56,-99.99,,,0.04,meteohub,2013-09-17 01:32:00,
2013-09-16 21:37:00,59.7,44.1,30.31,North,-999,-999.0,-999.0,56,-99.99,,,0.04,meteohub,2013-09-17 01:37:00,
2013-09-16 21:42:00,59.7,44.1,30.31,North,-999,-999.0,-999.0,56,-99.99,,,0.04,meteohub,2013-09-17 01:42:00,
2013-09-16 21:47:00,59.7,44.1,30.31,North,-999,-999.0,-999.0,56,-99.99,,,0.04,meteohub,2013-09-17 01:47:00,
2013-09-16 21:52:00,59.5,43.9,30.32,North,-999,-999.0,-999.0,56,-99.99,,,0.04,meteohub,2013-09-17 01:52:00,
2013-09-16 21:57:00,59.4,43.7,30.32,North,-999,-999.0,-999.0,56,-99.99,,,0.04,meteohub,2013-09-17 01:57:00,
2013-09-16 22:02:00,59.2,43.5,30.32,North,-999,-999.0,-999.0,56,-99.99,,,0.04,meteohub,2013-09-17 02:02:00,
2013-09-16 22:07:00,58.8,43.2,30.32,North,-999,-999.0,-999.0,56,-99.99,,,0.04,meteohub,2013-09-17 02:07:00,
2013-09-16 22:12:00,58.5,42.8,30.32,North,-999,-999.0,-999.0,56,-99.99,,,0.04,meteohub,2013-09-17 02:12:00,
2013-09-16 22:17:00,58.3,43.2,30.32,North,-999,-999.0,-999.0,57,-99.99,,,0.04,meteohub,2013-09-17 02:17:00,
2013-09-16 22:22:00,58.1,43.3,30.33,North,-999,-999.0,-999.0,58,-99.99,,,0.04,meteohub,2013-09-17 02:22:00,
2013-09-16 22:27:00,58.1,43.9,30.33,North,-999,-999.0,-999.0,59,-99.99,,,0.04,meteohub,2013-09-17 02:27:00,
2013-09-16 22:32:00,57.9,44.1,30.33,North,-999,-999.0,-999.0,60,-99.99,,,0.04,meteohub,2013-09-17 02:32:00,
2013-09-16 22:37:00,57.9,44.6,30.33,North,-999,-999.0,-999.0,61,-99.99,,,0.04,meteohub,2013-09-17 02:37:00,
2013-09-16 22:42:00,58.1,45.1,30.33,NW,315,2.0,-999.0,62,-99.99,,,0.04,meteohub,2013-09-17 02:42:00,
2013-09-16 22:47:00,58.3,45.7,30.32,North,-999,-999.0,2.0,63,-99.99,,,0.04,meteohub,2013-09-17 02:47:00,
2013-09-16 22:52:00,58.3,46.2,30.32,North,-999,-999.0,2.0,64,-99.99,,,0.04,meteohub,2013-09-17 02:52:00,
2013-09-16 22:57:00,58.3,46.2,30.32,WNW,292,2.0,2.0,64,-99.99,,,0.04,meteohub,2013-09-17 02:57:00,
2013-09-16 23:02:00,58.3,46.2,30.32,North,-999,-999.0,2.0,64,-99.99,,,0.04,meteohub,2013-09-17 03:02:00,
2013-09-16 23:07:00,58.3,46.2,30.32,North,-999,-999.0,2.0,64,-99.99,,,0.04,meteohub,2013-09-17 03:07:00,
2013-09-16 23:12:00,58.3,46.2,30.32,WNW,292,2.0,-999.0,64,-99.99,,,0.04,meteohub,2013-09-17 03:12:00,
2013-09-16 23:17:00,58.3,45.7,30.32,North,-999,-999.0,2.0,63,-99.99,,,0.04,meteohub,2013-09-17 03:17:00,
2013-09-16 23:22:00,58.5,46.4,30.32,WNW,292,2.0,2.0,64,-99.99,,,0.04,meteohub,2013-09-17 03:22:00,
2013-09-16 23:27:00,58.5,46.4,30.32,NW,315,1.0,2.0,64,-99.99,,,0.04,meteohub,2013-09-17 03:27:00,
2013-09-16 23:32:00,58.3,45.7,30.32,NW,315,2.0,3.0,63,-99.99,,,0.04,meteohub,2013-09-17 03:32:00,
2013-09-16 23:37:00,58.3,45.7,30.32,NW,315,2.0,3.0,63,-99.99,,,0.04,meteohub,2013-09-17 03:37:00,
2013-09-16 23:42:00,58.1,45.5,30.33,WNW,292,1.0,3.0,63,-99.99,,,0.04,meteohub,2013-09-17 03:42:00,
2013-09-16 23:47:00,57.9,45.5,30.33,WNW,292,2.0,3.0,63,-99.99,,,0.04,meteohub,2013-09-17 03:47:00,
2013-09-16 23:52:00,57.9,45.5,30.33,NW,315,2.0,3.0,63,-99.99,,,0.04,meteohub,2013-09-17 03:52:00,
2013-09-16 23:57:00,57.7,45.7,30.33,NW,315,3.0,3.0,64,-99.99,,,0.04,meteohub,2013-09-17 03:57:00,